Change the Weather History Date:

Friday, October 4, 2013

  Actual Average Record
Temperature  
Mean Temperature 62 °F -  
Max Temperature 71 °F 55 °F - ()
Min Temperature 52 °F 44 °F - ()
Degree Days  
Heating Degree Days 4    
Growing Degree Days 12 (Base 50)    
Moisture  
Dew Point 56 °F    
Average Humidity 84    
Maximum Humidity 100    
Minimum Humidity 64    
Precipitation  
Precipitation 0.04 in - - ()
Sea Level Pressure  
Sea Level Pressure 29.90 in    
Wind  
Wind Speed 13 mph ()    
Max Wind Speed 21 mph    
Max Gust Speed -    
Visibility 6.1 miles    
Events Rain , Thunderstorm    
T = Trace of Precipitation, MM = Missing Value Source: Averaged Metar Reports

Daily Weather History Graph

Daily Weather History Graph

Search for Another Location

Airport or City:

Trip Planner

Search our weather history database for the weather conditions in past years. The results will help you decide how hot, cold, wet, or windy it might be!

Date:

Astronomy

Oct. 04, 2013 Rise Set
Actual Time 7:47 AM CEST 7:11 PM CEST
Civil Twilight 7:13 AM CEST 7:44 PM CEST
Nautical Twilight 6:33 AM CEST 8:24 PM CEST
Astronomical Twilight 5:53 AM CEST 9:04 PM CEST
Moon 7:05 AM CEST (10/4) 6:41 PM CEST (10/4)
Length of Visible Light 12h 31m
Length of Day
11h 23m
Waning Crescent, 0% of the Moon is Illuminated
Oct 4
Waning Crescent
Oct 5
New
Oct 12
First Quarter
Oct 19
Full
Oct 27
Last Quarter

Hourly Weather History & Observations

Time (CEST) Temp. Dew Point Humidity Pressure Visibility Wind Dir Wind Speed Gust Speed Precip Events Conditions
12:25 AM 57.2 °F 46.4 °F 67% 29.89 in - SE 16.1 mph - N/A   Clear
12:55 AM 57.2 °F 48.2 °F 72% 29.89 in - SE 15.0 mph - N/A   Clear
1:25 AM 55.4 °F 50.0 °F 82% 29.89 in - SE 16.1 mph - N/A   Clear
1:55 AM 55.4 °F 50.0 °F 82% 29.89 in 6.2 mi SE 13.8 mph - N/A   Partly Cloudy
2:00 AM 56 °F 49 °F 71% 29.92 in 22 mi SE 13.4 mph - -   Partly Cloudy
2:25 AM 55.4 °F 50.0 °F 82% 29.92 in 5.0 mi SSE 13.8 mph - N/A Rain Rain Showers
2:55 AM 55.4 °F 50.0 °F 82% 29.89 in 6.2 mi SE 10.4 mph - N/A   Partly Cloudy
3:25 AM 53.6 °F 51.8 °F 94% 29.92 in 5.0 mi SSE 12.7 mph - N/A Rain Heavy Rain Showers
3:55 AM 53.6 °F 51.8 °F 94% 29.89 in 6.2 mi SE 15.0 mph - N/A Rain Light Rain Showers
4:25 AM 53.6 °F 51.8 °F 94% 29.86 in - SE 18.4 mph - N/A   Clear
4:55 AM 53.6 °F 51.8 °F 94% 29.89 in 6.2 mi SE 10.4 mph - N/A   Partly Cloudy
5:00 AM 53 °F 51 °F 92% 29.90 in 10 mi SE 11.2 mph - - Rain Rain
5:25 AM 53.6 °F 51.8 °F 94% 29.89 in 6.2 mi SE 15.0 mph - N/A Rain Light Rain Showers
6:25 AM 53.6 °F 50.0 °F 88% 29.86 in 6.2 mi SE 13.8 mph - N/A Rain Light Rain Showers
6:55 AM 53.6 °F 50.0 °F 88% 29.86 in 6.2 mi SSE 15.0 mph - N/A   Scattered Clouds
7:25 AM 53.6 °F 51.8 °F 94% 29.86 in 6.2 mi SSE 17.3 mph - N/A   Partly Cloudy
7:55 AM 53.6 °F 53.6 °F 100% 29.86 in 4.3 mi SE 13.8 mph - N/A Rain , Thunderstorm Thunderstorms and Rain
8:00 AM 54 °F 54 °F 98% 29.89 in 3 mi SE 13.4 mph - - Rain , Thunderstorm Light Thunderstorms and Rain
8:25 AM 55.4 °F 53.6 °F 94% 29.86 in 5.6 mi SE 12.7 mph - N/A Rain Light Rain Showers
8:55 AM 55.4 °F 53.6 °F 94% 29.86 in 6.2 mi SE 11.5 mph - N/A   Partly Cloudy
9:25 AM 55.4 °F 55.4 °F 100% 29.89 in 6.2 mi SE 12.7 mph - N/A   Partly Cloudy
9:55 AM 57.2 °F 55.4 °F 94% 29.89 in 5.6 mi SE 15.0 mph - N/A Rain Light Rain Showers
10:25 AM 57.2 °F 57.2 °F 100% 29.89 in 6.2 mi SSE 15.0 mph - N/A   Mostly Cloudy
10:55 AM 60.8 °F 59.0 °F 94% 29.89 in 6.2 mi SSE 10.4 mph - N/A   Mostly Cloudy
11:00 AM 61 °F 59 °F 90% 29.91 in 9 mi SSE 11.2 mph - - Rain Rain
11:25 AM 62.6 °F 59.0 °F 88% 29.89 in 6.2 mi SSE 12.7 mph - N/A   Mostly Cloudy
11:55 AM 64.4 °F 60.8 °F 88% 29.89 in 6.2 mi South 16.1 mph - N/A   Mostly Cloudy
12:25 PM 66.2 °F 62.6 °F 88% 29.89 in 6.2 mi South 15.0 mph - N/A   Mostly Cloudy
12:55 PM 66.2 °F 62.6 °F 88% 29.89 in 6.2 mi South 15.0 mph - N/A   Mostly Cloudy
1:25 PM 68.0 °F 62.6 °F 83% 29.89 in 6.2 mi South 16.1 mph - N/A   Scattered Clouds
1:55 PM 68.0 °F 62.6 °F 83% 29.89 in 6.2 mi South 17.3 mph - N/A   Scattered Clouds
2:00 PM 69 °F 62 °F 71% 29.91 in 22 mi South 17.9 mph - -   Partly Cloudy
2:25 PM 69.8 °F 60.8 °F 73% 29.89 in 6.2 mi SSW 20.7 mph - N/A   Scattered Clouds
2:55 PM 69.8 °F 60.8 °F 73% 29.89 in 6.2 mi SSW 19.6 mph - N/A   Partly Cloudy
3:25 PM 69.8 °F 60.8 °F 73% 29.89 in 6.2 mi SSW 19.6 mph - N/A   Partly Cloudy
3:55 PM 69.8 °F 59.0 °F 68% 29.89 in 6.2 mi SSW 17.3 mph - N/A   Partly Cloudy
4:25 PM 71.6 °F 60.8 °F 69% 29.89 in 6.2 mi SW 20.7 mph - N/A   Mostly Cloudy
4:55 PM 68.0 °F 59.0 °F 73% 29.89 in 6.2 mi SW 20.7 mph - N/A   Scattered Clouds
5:00 PM 70 °F 60 °F 64% 29.91 in 25 mi SW 20.1 mph - -   Overcast
5:25 PM 68.0 °F 59.0 °F 73% 29.89 in 6.2 mi SSW 17.3 mph - N/A   Partly Cloudy
5:55 PM 68.0 °F 59.0 °F 73% 29.89 in 6.2 mi SW 16.1 mph - N/A   Scattered Clouds
6:25 PM 66.2 °F 59.0 °F 78% 29.92 in 6.2 mi SSW 15.0 mph - N/A   Partly Cloudy
6:55 PM 66.2 °F 59.0 °F 78% 29.92 in 6.2 mi SW 13.8 mph - N/A   Partly Cloudy
7:25 PM 64.4 °F 57.2 °F 77% 29.92 in 6.2 mi SSW 13.8 mph - N/A   Partly Cloudy
7:55 PM 62.6 °F 57.2 °F 82% 29.92 in 6.2 mi SSW 12.7 mph - N/A   Partly Cloudy
8:00 PM 62 °F 58 °F 81% 29.95 in 28 mi South 11.2 mph - -   Partly Cloudy
8:25 PM 60.8 °F 57.2 °F 88% 29.95 in - SSW 10.4 mph - N/A   Clear
8:55 PM 60.8 °F 57.2 °F 88% 29.92 in - SSW 10.4 mph - N/A   Clear
9:25 PM 60.8 °F 57.2 °F 88% 29.95 in - SSW 10.4 mph - N/A   Clear
9:55 PM 60.8 °F 57.2 °F 88% 29.95 in - SSW 9.2 mph - N/A   Clear
10:25 PM 62.6 °F 57.2 °F 82% 29.92 in - SSW 12.7 mph - N/A   Clear
10:55 PM 60.8 °F 57.2 °F 88% 29.92 in - SSW 10.4 mph - N/A   Clear
11:00 PM 62 °F 57 °F 79% 29.95 in 25 mi SSW 8.9 mph - -   Overcast
11:25 PM 60.8 °F 57.2 °F 88% 29.92 in - SSW 8.1 mph - N/A   Clear
11:55 PM 60.8 °F 57.2 °F 88% 29.95 in - SSW 8.1 mph - N/A   Clear